Location: Vibo Valentia
(38.6670°N, 16.1000°E)
Time: 01:15:43
(UTC+02:00)

STARLINK-1353 - Visible Passes

Search period start: 02 October 2020 00:00
Search period end: 12 October 2020 00:00
Orbit: 532 x 532 km, 53.0° (Epoch: 01 October)

Date Brightness Start Highest point End Pass type
(mag) Time Alt. Az. Time Alt. Az. Time Alt. Az.
02 Oct 6.4 04:03:53 15° NE 04:03:53 15° NE 04:04:40 10° NE visible
02 Oct 5.8 05:39:10 11° NW 05:40:48 14° NNW 05:42:58 10° NNE visible
03 Oct 6.7 03:53:10 11° NE 03:53:10 11° NE 03:53:21 10° NE visible
03 Oct 5.9 05:28:27 12° NNW 05:29:41 13° NNW 05:31:36 10° NNE visible
04 Oct 6.0 05:17:42 11° NNW 05:18:34 12° NNW 05:20:13 10° NNE visible
05 Oct 6.1 05:06:55 11° NNW 05:07:27 11° N 05:08:51 10° NNE visible
06 Oct 6.2 04:56:08 11° N 04:56:19 11° N 04:57:29 10° N visible
07 Oct 6.3 04:45:20 11° N 04:45:20 11° N 04:46:09 10° N visible
07 Oct 6.0 06:23:30 10° NNW 06:25:51 15° NNE 06:28:12 10° NE visible
08 Oct 6.4 04:34:33 10° N 04:34:33 10° N 04:34:53 10° N visible
08 Oct 6.0 06:12:05 10° NNW 06:14:40 16° NNE 06:17:15 10° ENE visible
09 Oct 5.9 06:00:40 10° NNW 06:03:28 18° NNE 06:06:16 10° ENE visible
10 Oct 5.8 05:49:14 10° NNW 05:52:15 20° NNE 05:55:16 10° ENE visible
11 Oct 5.6 05:37:48 10° NNW 05:41:01 22° NNE 05:44:13 10° ENE visible
